CW7364 Weather Reports


Display with metric or nautical units.
time (UTC)temp
F
wind
direction
speed
MPH
gust
MPH
rain 1hr
in
rain 24hr
in
rain mn
in
humidity
%
barometer
mb
20260506164515 57 45 7.0 16.0 0.00 0.00 0.00 73 1013.7
20260506163517 56 23 6.0 13.0 0.00 0.00 0.00 74 1013.6
20260506162517 55 45 6.0 12.0 0.00 0.00 0.00 75 1013.6
20260506161517 55 45 7.0 13.0 0.00 0.00 0.00 75 1013.7
20260506160517 54 45 5.0 10.0 0.00 0.00 0.00 77 1013.3
20260506155517 54 45 6.0 12.0 0.00 0.00 0.00 76 1013.4
20260506154515 54 23 4.0 9.0 0.00 0.00 0.00 77 1014.1
20260506153517 54 23 4.0 9.0 0.00 0.00 0.00 77 1014.6
20260506152517 53 23 3.0 6.0 0.00 0.00 0.00 77 1014.8
20260506151517 53 68 1.0 3.0 0.00 0.00 0.00 77 1015.5
20260506150517 53 0 4.0 11.0 0.00 0.00 0.00 78 1014.3
20260506145517 53 23 4.0 9.0 0.00 0.00 0.00 79 1013.8
20260506144517 53 23 5.0 10.0 0.00 0.00 0.00 79 1014.2
20260506143557 53 23 4.0 10.0 0.00 0.00 0.00 80 1013.7
20260506142517 52 45 3.0 9.0 0.00 0.00 0.00 80 1013.8
20260506141557 52 23 3.0 7.0 0.00 0.00 0.00 81 1013.7
20260506140516 52 45 3.0 10.0 0.00 0.00 0.00 82 1014.0
20260506135516 51 0 4.0 10.0 0.00 0.00 0.00 83 1013.6
20260506134516 51 23 5.0 9.0 0.00 0.00 0.00 84 1013.0
20260506133516 51 0 3.0 7.0 0.00 0.00 0.00 85 1013.1
20260506132517 50 45 3.0 9.0 0.00 0.00 0.00 87 1012.9
20260506131536 50 23 3.0 9.0 0.00 0.00 0.00 88 1012.8
20260506130516 50 23 3.0 8.0 0.00 0.00 0.00 88 1012.7
20260506125516 50 23 4.0 8.0 0.00 0.00 0.00 88 1012.4
20260506124517 50 23 3.0 10.0 0.00 0.00 0.00 88 1012.4
20260506123516 50 23 2.0 5.0 0.00 0.00 0.00 88 1012.2
20260506122536 50 23 2.0 8.0 0.00 0.00 0.00 88 1012.1
20260506121516 50 0 1.0 4.0 0.00 0.00 0.00 87 1012.3
20260506120516 50 23 4.0 11.0 0.00 0.00 0.00 87 1012.2
20260506115516 50 0 2.0 8.0 0.00 0.00 0.00 87 1012.3
20260506114516 50 0 2.0 6.0 0.00 0.00 0.00 87 1012.4
20260506113516 50 0 3.0 8.0 0.00 0.00 0.00 87 1012.0
20260506112516 50 0 2.0 9.0 0.00 0.00 0.00 87 1011.7
20260506111516 50 23 2.0 6.0 0.00 0.00 0.00 86 1011.6
20260506110536 50 293 3.0 9.0 0.00 0.00 0.00 86 1011.4
20260506105516 51 23 5.0 10.0 0.00 0.00 0.00 85 1011.5
20260506104536 51 0 4.0 10.0 0.00 0.00 0.00 83 1011.3
20260506103516 52 338 4.0 11.0 0.00 0.00 0.00 82 1011.3
20260506102556 52 23 3.0 9.0 0.00 0.00 0.00 80 1011.3
20260506101516 53 23 3.0 9.0 0.00 0.00 0.00 79 1011.3
20260506100516 53 338 2.0 7.0 0.00 0.00 0.00 78 1011.0
20260506095536 53 293 3.0 10.0 0.00 0.00 0.00 78 1011.1
20260506094516 54 23 3.0 9.0 0.00 0.00 0.00 77 1010.8
20260506093516 54 0 2.0 7.0 0.00 0.00 0.00 77 1010.6
20260506092536 54 0 4.0 9.0 0.00 0.00 0.00 76 1010.2
20260506091516 54 23 3.0 8.0 0.00 0.00 0.00 77 1010.2
20260506090516 54 0 3.0 7.0 0.00 0.00 0.00 77 1010.1
20260506085516 54 23 4.0 10.0 0.00 0.00 0.00 76 1009.9
20260506084515 54 23 2.0 4.0 0.00 0.00 0.00 77 1009.8
20260506083515 55 293 1.0 4.0 0.00 0.00 0.00 78 1009.8
20260506082535 55 23 3.0 9.0 0.00 0.00 0.00 77 1009.9
20260506081515 55 23 4.0 9.0 0.00 0.00 0.00 77 1009.7
20260506080515 55 23 2.0 7.0 0.00 0.00 0.00 77 1009.9
20260506073515 55 338 2.0 5.0 0.00 0.00 0.00 79 1009.9
20260506072535 55 315 1.0 5.0 0.00 0.00 0.00 79 1010.0
20260506071515 55 45 3.0 6.0 0.00 0.00 0.00 78 1009.6
20260506070515 55 45 2.0 6.0 0.00 0.00 0.00 78 1009.7
20260506062517 55 23 4.0 10.0 0.00 0.00 0.00 78 1009.2
20260506061537 56 45 3.0 7.0 0.00 0.00 0.00 78 1009.4
20260506060517 56 23 4.0 9.0 0.00 0.00 0.00 78 1009.2
20260506050518 56 23 5.0 12.0 0.00 0.00 0.00 79 1009.3
20260506044516 57 23 3.0 8.0 0.00 0.00 0.00 80 1009.3
20260506043515 57 23 4.0 10.0 0.00 0.00 0.00 81 1009.3
20260506042515 57 23 3.0 6.0 0.00 0.00 0.00 81 1009.3
20260506041515 57 23 2.0 5.0 0.00 0.00 0.00 81 1009.2
20260506040515 58 23 3.0 8.0 0.00 0.00 0.00 81 1009.2
20260506035516 58 23 4.0 9.0 0.00 0.00 0.00 81 1009.1
20260506034535 58 23 4.0 9.0 0.00 0.00 0.00 81 1008.9
20260506033535 58 0 4.0 12.0 0.00 0.00 0.00 81 1009.0
20260506032515 59 0 3.0 11.0 0.00 0.00 0.00 80 1008.9
20260506031517 59 23 5.0 12.0 0.00 0.00 0.00 80 1008.5
20260506030517 59 23 6.0 13.0 0.00 0.00 0.00 80 1008.3
20260506025517 60 23 7.0 13.0 0.00 0.00 0.00 80 1008.2
20260506024517 60 23 6.0 14.0 0.00 0.00 0.00 79 1008.1
20260506023517 61 23 5.0 9.0 0.00 0.00 0.00 79 1008.2
20260506022517 61 0 4.0 10.0 0.00 0.00 0.00 79 1007.7
20260506021517 62 23 4.0 9.0 0.00 0.00 0.00 78 1007.5
20260506020517 62 23 3.0 8.0 0.00 0.00 0.00 78 1007.0
20260506015517 62 23 3.0 10.0 0.00 0.00 0.00 78 1006.6
20260506014517 63 23 3.0 8.0 0.00 0.00 0.00 77 1006.1
20260506013517 63 0 4.0 10.0 0.00 0.00 0.00 77 1005.6
20260506012517 64 0 3.0 8.0 0.00 0.00 0.00 76 1005.2
20260506011517 64 0 4.0 9.0 0.00 0.00 0.00 76 1005.5
20260506010537 65 23 3.0 7.0 0.00 0.00 0.00 75 1004.9
20260506005517 66 23 3.0 9.0 0.00 0.00 0.00 75 1005.0
20260506004517 66 0 2.0 6.0 0.00 0.00 0.00 75 1004.9
20260506003516 66 293 4.0 10.0 0.00 0.00 0.00 75 1004.9
20260506002518 66 293 3.0 10.0 0.00 0.00 0.00 74 1005.1
20260506001516 67 270 2.0 5.0 0.00 0.00 0.00 74 1004.8
20260506000517 67 315 3.0 9.0 0.00 0.00 0.00 73 1004.8
20260505235516 67 293 3.0 10.0 0.00 0.00 0.00 73 1004.8
20260505234517 68 293 6.0 14.0 0.00 0.00 0.00 72 1004.9
20260505233516 69 315 4.0 9.0 0.00 0.00 0.00 71 1004.7
20260505232516 70 293 6.0 16.0 0.00 0.00 0.00 72 1004.9
20260505231517 71 293 4.0 11.0 0.00 0.00 0.00 71 1004.5
20260505230556 72 293 4.0 10.0 0.00 0.00 0.00 70 1004.4
20260505225516 73 293 8.0 12.0 0.00 0.00 0.00 70 1004.6
20260505224517 73 293 8.0 15.0 0.00 0.00 0.00 69 1004.5
20260505223516 74 293 10.0 15.0 0.00 0.00 0.00 69 1004.4
20260505222516 75 293 10.0 16.0 0.00 0.00 0.00 68 1004.3
20260505221516 76 293 7.0 13.0 0.00 0.00 0.00 67 1004.2
20260505220516 77 293 10.0 16.0 0.00 0.00 0.00 65 1004.1
20260505215516 78 293 5.0 13.0 0.00 0.00 0.00 65 1003.9
20260505214516 79 293 10.0 15.0 0.00 0.00 0.00 64 1003.9
20260505213516 79 293 6.0 12.0 0.00 0.00 0.00 67 1003.7
20260505212516 80 293 9.0 13.0 0.00 0.00 0.00 63 1004.0
20260505211516 80 293 8.0 11.0 0.00 0.00 0.00 63 1003.7
20260505210536 81 293 9.0 14.0 0.00 0.00 0.00 61 1004.1
20260505205516 81 293 9.0 15.0 0.00 0.00 0.00 62 1004.2
20260505204516 82 293 10.0 15.0 0.00 0.00 0.00 62 1004.2
20260505203516 82 293 10.0 15.0 0.00 0.00 0.00 61 1004.4
20260505202516 81 293 12.0 18.0 0.00 0.00 0.00 61 1004.4
20260505201516 83 293 11.0 16.0 0.00 0.00 0.00 58 1004.5
20260505200556 83 293 11.0 16.0 0.00 0.00 0.00 52 1004.2
20260505195516 82 293 10.0 16.0 0.00 0.00 0.00 50 1004.3
20260505194515 83 293 12.0 17.0 0.00 0.00 0.00 49 1004.3
20260505193516 83 293 11.0 17.0 0.00 0.00 0.00 50 1004.0
20260505192516 87 293 10.0 21.0 0.00 0.00 0.00 46 1004.1
20260505191535 87 270 4.0 12.0 0.00 0.00 0.00 54 1004.1
20260505190516 87 248 3.0 12.0 0.00 0.00 0.00 58 1004.0
20260505185555 86 225 3.0 6.0 0.00 0.00 0.00 57 1004.0
20260505184515 85 248 4.0 12.0 0.00 0.00 0.00 59 1003.9
20260505183516 85 248 3.0 7.0 0.00 0.00 0.00 65 1004.0
20260505182515 84 248 1.0 3.0 0.00 0.00 0.00 66 1004.0
20260505181517 83 203 2.0 4.0 0.00 0.00 0.00 68 1004.1
20260505180515 82 225 3.0 6.0 0.00 0.00 0.00 66 1004.0
20260505175616 83 225 3.0 8.0 0.00 0.00 0.00 66 1004.1
20260505174515 82 225 3.0 5.0 0.00 0.00 0.00 66 1003.9
20260505173515 82 225 5.0 9.0 0.00 0.00 0.00 65 1003.9
20260505172515 83 225 4.0 7.0 0.00 0.00 0.00 66 1003.9
20260505171537 82 225 5.0 8.0 0.00 0.00 0.00 68 1003.6
20260505170517 82 225 4.0 7.0 0.00 0.00 0.00 71 1003.6
20260505165517 81 225 5.0 9.0 0.00 0.00 0.00 70 1003.6